THOR ABLESTAR DEB, 1522

Orbit data source: Space-Track

THOR ABLESTAR DEB, 1522 is space debris in LEO originally from a launch on Fri, 13 Aug 1965 UTC launched from the Air Force Western Test Range (AFWTR). Debris objects in space refer to the collection of defunct objects orbiting the Earth. Examples of debris include non-operational satellites, rocket bodies, and fragments generated from explosions, collisions, or faulty payload assembly.

Loading next visibility...
Identifier
1522, 1965-065L
Orbit
LEO
Last TLE update
2 days ago
Origin
Manufacturer
Unknown
Mission
Spacecraft
Bus & Motor
Unknown
Mass
Unknown
Launch date (UTC)
1965-08-13 (60 years ago)
Launch vehicle
Unknown
Launch site
Air Force Western Test Range (AFWTR)
Object type
Payload
Rocket body
Debris
Shape & HBR
Unknown
Radar Cross Section
Medium (>0.1 m² and <1 m²)

Expand to show TLE details & history

TLE from 2 days ago
0 THOR ABLESTAR DEB
1 01522U 65065L   25118.49933144  .00000074  00000-0  13154-3 0  9994
2 01522  90.0883 123.2344 0070175 334.0231 143.9924 13.33814528904514
Epoch: 2025-04-28T11:59Z
Definitive object data (Epoch: 2025-04-28T11:59:02.236Z)
Latitude
61.6013°
Longitude
-93.0749°
Altitude
1,185.798 km
Speed
7.246 km/s
True Right ascension
20h 13m 35s
True Declination
61° 27' 55"
Sunlit
Object was in daylight at TLE epoch
Visualization TLE readout
Latitude
5.86255°
Longitude
-93.21528°
Altitude
1,182.759 km
Speed
7.239 km/s
Apparent Right ascension
20h 03m 27s
Apparent Declination
-14° 54' 39"
Sunlit
Object is in daylight
Visualization observer readout
Local Sidereal Time
07:48:46
Azimuth
351.646° N
Elevation
-64.789°
Doppler factor
1
Orbital elements
Apogee altitude
1,182.168 km
Perigee altitude
1,076.798 km
Semi-major axis
7,507.62 km
Eccentricity
0.0070175
Inclination
90.0883°
RAAN
123.2344°
Arg. of periapsis
334.0231°
True anomaly
144.46181°
Mean anomaly
143.9924°
Eccentric anomaly
144.22744°
Mean motion
3.33649 °/min
BSTAR
0.00013154
Orbital period
107.9 mins
Loading maneuver chart data...
Loading SW <> Apogee altitude chart data...
Loading historical data...
Loading historical data...
Loading historical data...
Loading historical data...
Loading historical data...
Loading historical data...
Loading historical data...

THOR ABLESTAR DEB Visibility forecast

Observer location: undefined°, undefined°

Span
Click to sort rows by Start time (UTC) header in descending order
Start Az.
Max El. time (UTC)
Max El. Az.
Max El.
End time (UTC)
End Az.
11 mins2025-04-30 01:18:26.325Z206.729° SW2025-04-30 01:23:26.325Z263.331° W34.256°2025-04-30 01:29:26.325Z341.012° N
6 mins2025-04-30 10:51:26.325Z55.154° ENE2025-04-30 10:53:26.325Z73.651° E15.196°2025-04-30 10:57:26.325Z108.851° ESE
13 mins2025-04-30 12:36:26.325Z1.089° NNE2025-04-30 12:42:26.325Z232.493° WSW44.87°2025-04-30 12:49:26.325Z186.425° SSW
4 mins2025-04-30 14:27:26.325Z305.188° NW2025-04-30 14:28:26.325Z296.136° NW13.904°2025-04-30 14:31:26.325Z269.47° W
7 mins2025-04-30 22:58:26.325Z98.768° ESE2025-04-30 23:01:26.325Z68.68° E17.03°2025-04-30 23:05:26.325Z32.26° NE
|